Regional Weather Roundup
Issued by NWS Wakefield, VA

Home | Current Version | Previous Version | Graphics & Text | Print | Product List | Glossary On
Versions: 1 2 3 4 5 6 7 8 9 10 11 12 13 14 15 16 17 18 19 20 21 22 23 24 25 26 27 28 29 30 31 32 33 34 35 36 37 38 39 40 41 42 43 44 45 46 47 48 49 50
000
ASUS41 KAKQ 292015
RWRAKQ

REGIONAL WEATHER ROUNDUP
NATIONAL WEATHER SERVICE WAKEFIELD VA
400 PM EDT FRI APR 29 2016

Note: "fair" indicates few or no clouds below 12,000 feet with no
significant weather and/or obstructions to visibility. * = Denotes
station may not report precipitation (e.g., rain,snow,etc.),
thunder or fog.

VAZ042-051-052>054-056-292100-
NORTHERN VIRGINIA

CITY           SKY/WX    TMP DP  RH WIND       PRES   REMARKS
WASH NATIONAL  CLOUDY    55  49  80 E3        30.04S
DULLES         CLOUDY    54  49  83 VRB5      30.03F
FORT BELVOIR   CLOUDY    55  49  79 S5        30.03S
QUANTICO       CLOUDY    57  50  77 E3        30.04S
FREDERICKSBRG* CLOUDY    56  55  94 NW3       30.03S
STAFFORD*      CLOUDY    55  49  80 NE3       30.07S
WARRENTON      CLOUDY    55  47  75 E3        30.02F
CULPEPER*      CLOUDY    54  51  90 E3        30.04F
MANASSAS*      CLOUDY    55  52  88 CALM      30.04S
LEESBURG*      CLOUDY    54  52  94 SE3       30.03F
WINCHESTER     CLOUDY    54  50  87 SE7       30.00F
FRONT ROYAL*   CLOUDY    55  50  82 NE6       29.99F
LURAY*         MOCLDY    61  55  82 NE6       29.96F
$$

VAZ048-049-060>072-079>083-292100-
CENTRAL AND SOUTH CENTRAL VIRGINIA

CITY           SKY/WX    TMP DP  RH WIND       PRES   REMARKS
RICHMOND       CLOUDY    59  52  77 CALM      30.01S
CHESTERFIELD*  CLOUDY    61  45  55 CALM      30.03S
PETERSBURG*    PTSUNNY   62  55  76 CALM      30.01F
HANOVER        CLOUDY    60  51  72 N3        30.03S
TAPPAHANNOCK*  CLOUDY    59  54  85 NE3       30.03S
QUINTON*       CLOUDY    59  54  82 CALM      30.01S
CHARLOTTSVILLE CLOUDY    55  50  83 E5        30.01F
GORDONSVILLE*  CLOUDY    54  52  91 N5        30.01F
ORANGE*        CLOUDY    55  54  94 NE3       30.04F
LOUISA*        CLOUDY    59  55  88 E3        30.01F
BUMPASS*       CLOUDY    56  52  85 CALM      30.02F
FARMVILLE*     CLOUDY    62  56  80 SE3       29.98F
CREWE*         CLOUDY    60  57  88 NE3       30.00F
FORT PICKETT*  NOT AVBL
CHASE CITY*    FAIR      65  58  77 E7        29.99S
CLARKSVILLE*   FAIR      66  59  77 SE6       29.98F
SOUTH HILL*    PTSUNNY   63  55  77 CALM      30.06F
LAWRENCEVILLE* CLOUDY    62  56  81 CALM      30.00F
EMPORIA*       CLOUDY    61  55  82 CALM      30.02F
$$

VAZ088>098-292100-
SOUTHEAST VIRGINIA

CITY           SKY/WX    TMP DP  RH WIND       PRES   REMARKS
NORFOLK        CLOUDY    57  53  86 N9        30.00F
VIRGINIA BEACH CLOUDY    60  54  80 N13       30.00S
NORFOLK NAVAL  CLOUDY    59  54  83 N7        30.02S
WEST POINT*    CLOUDY    59  54  82 W3        30.03S
SALUDA*        CLOUDY    57  54  89 N3        30.02S
NEWPORT NEWS   CLOUDY    59  54  83 N5        30.01S
LANGLEY AFB    CLOUDY    58  55  88 VRB5      30.01S
FORT EUSTIS    CLOUDY    59  58  94 N3        30.00S
WILLIAMSBURG*  FAIR      61  55  82 CALM      30.01F
HR EXEC AP*    CLOUDY    59  55  88 NW3       30.03S
FRANKLIN*      CLOUDY    61  55  81 CALM      30.01F
US460-WAKEFLD  CLOUDY    61  54  77 N3        30.01F
$$

VAZ020-022-025-037-045-292100-
WEST CENTRAL AND SOUTHWEST VIRGINIA

CITY           SKY/WX    TMP DP  RH WIND       PRES   REMARKS
STAUNTON*      CLOUDY    65  56  72 SE8       29.96F
WAYNESBORO*    FAIR      57  51  80 MISG      29.96F
HOT SPRINGS VA FAIR      70  43  37 W16       29.99F
LYNCHBURG      PTSUNNY   67  58  72 E7        29.97F
DANVILLE       FAIR      77  60  55 VRB6      29.93F
SOUTH BOSTON*  FAIR      71  60  68 E6        29.96F
MARTINSVILLE   FAIR      79  54  41 S5        29.94F
ROANOKE        FAIR      82  46  28 SW9       29.93F
BLACKSBURG     FAIR      77  48  35 NW10G17   29.99F
DUBLIN*        FAIR      79  46  30 W10       29.98F
MARION*        FAIR      75  50  41 SW10G20   30.03S
HILLSVILLE*    FAIR      75  47  37 NW13      29.99F
RICHLANDS*     FAIR      74  34  22 W8        30.02F
WISE*          FAIR      75  36  23 W13G20    30.05S
ABINGDON*      FAIR      76  50  38 W7        30.01F
$$

MDZ021>025-VAZ099-100-292100-
SOUTHERN MARYLAND AND THE DELMARVA PENINSULA

CITY           SKY/WX    TMP DP  RH WIND       PRES   REMARKS
PATUXENT RIVER CLOUDY    55  50  83 NE6       30.03S
BAY BRIDGE APT NOT AVBL
LEONARDTOWN    CLOUDY    52  50  93 N5        30.05R
DOVER          DRIZZLE   51  51 100 N9        30.06R FOG
GEORGETOWN     CLOUDY    51  49  92 NE8       30.04S FOG
EASTON         CLOUDY   N/A N/A N/A NE7       30.08F HAZE
CAMBRIDGE      CLOUDY    52  48  87 NE5       30.04S
SALISBURY      CLOUDY    53  50  89 N7        30.03R FOG
OCEAN CITY     CLOUDY    52  48  86 N14G20    30.04R
WALLOPS ISLAND CLOUDY    56  50  80 N9        30.02S
ACCOMACK*      CLOUDY    54 -24   3 N6        30.02R HAZE
$$

NCZ012>017-030>032-292100-
NORTH CENTRAL AND EASTERN NORTH CAROLINA

CITY           SKY/WX    TMP DP  RH WIND       PRES   REMARKS
ROANOKE RAPIDS CLOUDY    63  55  77 CALM      30.01F
RALEIGH        MOSUNNY   76  60  57 E5        29.97F
ELIZABETH CITY CLOUDY    63  57  81 N12       29.99S
AHOSKIE*       CLOUDY    61  57  84 CALM      30.01S
EDENTON*       CLOUDY    65  60  84 N9        29.99S
CURRITUCK*     CLOUDY    61  58  92 N6        30.00S
KILL DEVIL HLS CLOUDY    61  54  78 N12G18    29.97R
MANTEO         NOT AVBL
CAPE HATTERAS  SUNNY     70  61  73 VRB6      29.94S
TARBORO*       CLOUDY    65  58  75 N6        30.03S
GOLDSBORO      MOSUNNY   70  61  73 N8        29.98S
WASHINGTON     CLOUDY    65  59  79 NW5       29.99S
GREENVILLE     CLOUDY    64  61  88 N6        30.02S
NEW BERN       CLOUDY    70  59  68 NW9       29.99S
WILMINGTON     SUNNY     74  63  68 E9        29.96S
$$

VAZ048-292100-
ELSEWHERE

CITY           SKY/WX    TMP DP  RH WIND       PRES   REMARKS
HARRISBURG PA  CLOUDY    49  45  86 SE7       30.04S
BALTIMORE      CLOUDY    52  47  83 NE5       30.05S
ANNAPOLIS      CLOUDY    53  49  86 MISG      30.05F
ANDREWS AFB    CLOUDY    54  49  86 NE6       30.03R
PHILADELPHIA   CLOUDY    51  41  68 NE8       30.08S
HENDERSON NC   MOSUNNY   69  59  71 E6        29.98F
GREENSBORO     MOSUNNY   82  51  34 VRB7      29.93F
ROCKY MOUNT    PTSUNNY   68  58  70 NE5       30.00F
$$

VAZ100-292100-
MARINE

STATION/POSITION TIME  TEMP    WIND        PRES    WAVE   SWELL
                       AIR SEA DIR/SP/G            HT/PER HT/PER
                 (UTC) (F)     (DEG/KT/KT) (MB)    (FT/S) (FT/S)
BRANDYWINE LGT   1900   51      50/ 15/ 17 1017.4R
CAPE MAY NJ      1900   51 57   40/ 10/ 15 1016.8R
LEWES DE         1900   51 54   60/ 15/ 17 1017.1S
15NM E FENWICK I 1950   51 51              1015.9R   6/ 7
OCEAN-CITY-INLET 1900   52 54   20/ 11/ 17 1016.0R
WACHAPREAGUE VA  1900   57 58  340/  3/  5 1015.9R
THOMAS POINT MD  2000   52 57   20/  6/  7 1018.9S
GOOSES REEF MD   2000   54 57   50/  4/  6 1018.4R
COVE POINT MD    1900   53      40/  7/  8 1017.4F
SOLOMONS ISLAND  1900   54 60   20/  5/  6   N/A
BISHOPS HEAD MD  1900   54 58   30/  7/  9 1016.2F
PINEY POINT MD   1900           10/  3/  4   N/A
POTOMAC MD       2000   54 59   30/  6/ 10 1016.0F   0
CAMBRIDGE MD     1900   53 61   20/  7/  8 1016.6R
LEWISETTA VA     1900   54 60   50/  4/  6 1016.5F
RAPPAHANNOCK LGT 1900          360/ 11/ 13 1016.9S
STINGRAY PT      1900   56 61   10/  8/ 12 1017.0S   1/ 2
YORK RVR RNG VA  1900   56     360/  8/ 10 1015.6F
YORKTOWN VA      1900   56 62  350/  5/  7 1016.0F
JAMESTOWN VA     2000   58 67   CALM  /  2   N/A     0
DOMINION TERM VA 1900   58     360/  6/  8 1016.2R
KIPTOPEKE VA     1900      60  340/ 11/ 13   N/A
CHES BAY BRIDGE  1900   56 60  320/ 10/ 12 1015.8R
CAPE HENRY VA    1900   55     330/ 10/ 11   N/A
CHESAPEAKE LGHT  1900   54     360/ 15/ 16 1016.4R
WILLOUBY STN VA  1900   56     350/  9/ 11 1017.0F
CAPE HENRY BUOY  1912      56                N/A     4/ 6
CAPE CHARLES BUO 1926      56                N/A     3/ 7   2/ 7
OFFSHORE WE BUOY 1921      55                N/A     4/ 6   3/ 6
64NM E OF VA BCH 1950   54 54  340/ 19/ 21 1013.7F   5/ 7   3/ 7
DUCK PIER NC     1900   56 67  360/ 17/ 19 1014.6R
44100 DUCK FRF   1924      58                N/A     4/ 7
44056 DUCK FRF   1911      59                N/A     3/ 5
OREGON INLET NC  1900   61 63  340/ 13/ 19 1014.0R
HATTERAS NC      1900   66 69  330/ 14/ 16 1013.7R
DIAMOND SHLS NC  1950   66 74  350/ 14/ 17 1013.3R   3/ 8   2/ 8
CAPE LOOKOUT NC  2000   71     290/  9/ 11 1013.7F
$$



USA.gov is the U.S. government's official web portal to all federal, state and local government web resources and services.